Wind_Speed
42 42 41 41 39 37 36 35 34 33 31 30 29 28 27 25 22 20 18 18 20 22 24 26 27 27 27 27 27 28 29 29 29 30 30 30 29 29 28 28 28 28 28 28 27 27 26 26 26 26 26 26 26 26 26 26 26 26 25 24 22 21 22 24 26 25 24 23 23 23 22 21 20 21 21 21 22 23 23 23 24 24 25 24 24 22
42 42 42 41 39 38 37 37 36 35 34 33 32 31 30 28 25 22 20 19 21 23 25 26 26 26 26 26 27 28 29 30 30 30 30 29 29 28 28 27 27 26 26 25 25 25 25 25 25 26 26 26 26 26 26 26 26 26 25 23 22 22 24 27 28 27 25 23 22 21 20 19 19 20 21 22 22 23 23 23 24 24 24 24 23 22
43 42 42 41 40 39 37 36 36 36 35 34 34 33 33 31 29 26 23 22 23 25 27 28 28 28 28 28 28 29 29 30 30 30 29 29 28 28 27 26 25 24 24 24 24 24 24 24 25 25 25 25 25 26 26 26 26 26 25 23 22 24 27 30 31 29 26 24 22 20 19 18 19 20 21 22 22 22 21 22 21 21 21 22 23 23
44 43 42 42 41 40 38 36 35 35 34 34 34 34 34 34 33 31 28 27 26 27 28 29 30 30 29 29 29 29 29 30 30 29 29 28 28 27 26 25 23 23 23 24 24 24 24 25 25 25 25 25 26 26 26 26 26 25 24 23 24 27 30 32 32 30 27 25 23 21 19 19 19 20 21 21 21 20 20 19 19 20 21 22 23 23
45 44 43 42 42 41 40 38 37 35 35 34 34 34 35 35 35 34 33 31 29 29 29 30 30 29 28 28 28 29 29 29 29 29 29 28 27 26 25 24 23 23 23 24 25 25 25 25 25 25 26 26 26 26 26 26 26 25 24 24 26 28 31 31 30 28 27 26 25 24 22 20 20 20 21 22 22 21 20 19 20 21 22 23 23 24
47 46 45 44 43 43 42 41 40 39 38 37 37 37 37 37 37 36 36 34 32 31 30 30 29 28 27 27 28 29 29 30 30 29 28 27 26 25 24 24 24 24 24 25 26 26 25 25 25 25 26 26 26 26 26 26 25 24 23 24 25 26 27 26 26 25 26 27 27 26 24 22 21 22 23 24 23 22 21 21 21 22 23 23 24 24
49 48 47 46 45 44 44 44 43 43 42 42 41 41 41 40 39 38 37 36 35 33 31 30 29 28 27 27 28 29 30 30 30 29 28 27 26 25 25 24 25 25 26 26 26 26 26 25 25 25 26 26 26 26 26 25 24 23 22 22 22 22 22 22 23 25 27 28 28 26 24 23 23 24 25 25 25 24 23 22 23 23 24 24 24 25
50 50 49 48 47 46 46 45 45 45 45 45 45 45 44 44 42 41 39 38 36 35 33 32 30 29 29 29 29 30 30 31 30 30 29 28 27 26 26 26 26 26 26 27 27 26 26 26 25 25 25 26 26 26 26 25 24 23 22 21 21 20 20 21 24 27 29 28 27 26 24 24 24 26 27 27 26 24 24 23 24 24 24 24 25 25
51 51 51 50 49 48 47 47 46 46 46 47 47 47 46 46 45 43 41 39 38 37 35 34 33 32 31 31 31 31 32 32 31 31 30 29 28 27 27 27 27 27 27 27 27 27 26 26 26 25 26 26 26 26 26 25 24 23 22 22 22 22 22 24 26 28 28 27 26 25 24 24 26 27 28 27 26 25 24 24 24 25 25 25 25 26
52 52 52 52 51 50 49 48 47 47 46 46 47 47 46 46 45 44 42 41 39 38 37 37 36 35 34 33 33 33 33 33 33 32 31 30 29 29 28 28 28 28 28 28 28 28 27 27 26 26 26 26 27 27 27 26 25 24 23 24 25 26 26 27 28 28 27 26 25 24 24 25 27 28 28 27 25 24 24 24 25 25 25 25 26 26
52 52 52 52 52 52 51 50 49 48 47 46 46 46 46 45 44 43 42 41 40 39 39 38 38 37 36 35 35 35 35 35 34 33 33 32 31 30 30 30 30 30 29 29 29 29 28 28 27 27 26 27 27 27 27 27 26 25 25 27 28 29 28 29 29 28 26 25 24 24 25 27 28 29 28 26 24 24 24 24 25 25 25 26 26 26
52 52 52 53 53 52 52 51 51 49 48 47 46 46 45 44 43 43 42 41 40 39 39 39 39 38 38 37 37 37 37 36 36 35 34 34 33 32 32 31 31 31 31 31 30 30 29 29 28 27 27 27 27 28 28 27 27 26 27 28 29 29 30 30 29 28 26 25 25 26 27 28 29 28 26 25 23 23 24 24 25 25 26 26 26 26
51 52 52 52 53 53 52 52 51 50 49 48 47 46 45 44 43 42 42 41 40 40 39 39 39 39 39 39 39 38 38 38 37 37 36 36 35 34 34 33 33 32 32 32 31 31 30 29 29 28 28 28 28 28 28 28 28 27 28 29 30 30 30 31 30 28 27 26 26 27 29 29 28 27 25 24 23 23 24 25 25 26 26 26 26 26
51 51 51 52 52 52 52 52 51 51 50 49 47 46 45 43 42 42 42 41 41 40 40 40 39 39 39 39 39 40 39 39 38 38 38 37 36 36 35 35 34 34 33 33 32 32 31 30 29 29 28 28 28 28 29 29 28 28 29 30 30 31 32 32 30 29 27 27 28 29 29 28 27 26 25 24 25 25 25 25 25 26 26 26 26 25
51 51 51 51 52 52 52 52 51 51 50 48 47 45 44 44 43 42 42 42 41 41 41 41 40 39 39 39 40 40 40 40 39 39 39 38 38 37 37 36 35 35 34 34 33 32 31 31 30 29 29 28 29 29 29 29 29 29 30 31 32 32 33 32 31 29 28 28 29 29 29 28 27 26 26 26 26 26 26 26 26 26 26 26 26 25
51 51 51 51 51 51 51 51 51 50 49 48 47 45 44 44 43 43 43 42 42 42 41 41 41 40 40 40 40 40 41 41 40 40 39 39 39 38 38 37 36 35 34 34 33 33 32 31 30 29 29 29 29 29 29 29 29 29 30 31 32 33 33 32 30 29 29 29 30 29 29 28 28 28 27 27 27 27 27 26 26 26 26 26 25 24
51 51 51 51 51 51 51 51 50 50 49 48 47 46 45 44 44 43 43 43 43 42 42 42 41 41 41 40 40 40 41 41 41 41 40 40 40 39 38 38 37 36 35 34 33 33 32 31 30 30 29 29 29 29 29 29 29 29 30 31 32 32 32 31 30 29 29 30 30 30 30 29 29 29 29 28 28 27 27 26 26 26 26 26 25 24
51 51 51 51 51 51 51 50 50 49 49 47 46 46 45 44 44 44 43 43 43 43 42 42 42 42 41 40 39 40 40 41 42 42 41 40 40 40 39 38 37 36 35 34 33 33 32 31 30 30 30 30 30 29 29 29 29 29 30 30 31 31 32 31 30 30 30 31 31 31 31 31 31 30 30 29 28 27 27 26 26 26 26 25 24 24
52 52 51 51 51 51 51 50 50 49 48 47 46 45 45 44 44 44 44 43 43 43 43 43 43 42 41 40 39 39 40 41 42 42 41 41 40 40 39 38 38 36 35 34 33 32 32 31 30 30 30 31 30 30 29 29 29 29 29 29 30 31 31 31 31 31 32 32 32 32 32 32 32 31 30 28 28 27 27 26 26 26 26 25 24 23
52 52 52 51 51 51 50 50 50 49 48 47 46 45 45 44 44 44 44 43 43 43 43 43 43 42 42 41 40 40 40 41 42 43 42 41 41 40 40 39 38 37 35 34 33 33 32 31 31 31 31 31 30 30 29 29 29 29 29 30 30 31 31 31 32 33 33 33 34 33 33 33 32 30 29 28 27 27 26 26 26 26 25 25 24 23
53 53 52 51 51 50 50 50 49 48 47 46 46 45 45 45 44 44 44 43 43 43 43 43 43 43 42 42 41 41 41 42 43 43 43 42 41 41 40 40 39 37 36 34 34 33 32 32 31 31 31 31 30 30 30 30 31 31 31 31 31 31 31 32 32 33 34 34 34 34 33 32 31 29 28 28 27 27 26 26 26 25 25 24 23 23
53 53 52 51 50 50 50 49 48 47 47 46 46 46 46 45 44 44 43 43 43 43 43 43 44 44 43 43 43 42 42 42 43 43 43 43 42 42 41 40 39 38 36 35 34 33 33 32 32 32 32 31 30 30 31 32 33 33 33 33 32 32 31 32 32 32 33 33 33 33 32 31 30 29 28 28 27 27 26 26 26 25 25 24 23 23
53 52 52 51 50 50 49 48 48 47 47 46 46 46 46 45 44 43 43 43 43 43 44 44 45 45 45 44 44 43 43 43 43 43 44 43 43 42 41 40 39 38 37 35 34 34 33 33 32 32 32 31 31 32 34 35 35 36 36 35 34 32 31 31 30 30 31 31 32 32 32 31 30 30 29 28 28 27 26 26 25 25 24 24 23 23
52 52 51 51 50 49 49 48 47 47 47 46 46 46 46 45 44 44 43 43 43 43 44 44 45 45 45 45 44 44 43 43 43 43 44 44 43 42 41 41 40 38 37 36 35 34 34 33 33 33 33 32 33 34 36 37 37 38 38 36 34 32 30 29 29 29 30 31 32 32 32 32 31 31 30 29 28 27 26 26 25 25 24 24 23 23
53 52 52 51 50 49 48 47 47 47 47 46 46 46 45 45 44 44 44 44 43 43 44 44 45 45 45 45 45 44 44 43 43 43 43 43 43 43 42 41 40 39 38 36 35 35 34 34 34 34 34 34 35 36 37 38 39 39 38 36 33 31 29 29 30 31 32 33 33 34 33 33 33 32 31 29 28 27 26 26 25 25 24 24 24 24
53 53 52 51 50 49 48 47 47 47 47 46 46 46 45 45 44 44 44 44 44 44 44 45 45 46 46 45 45 44 44 43 43 43 43 43 43 43 42 41 41 40 38 37 36 35 35 35 35 35 35 35 36 37 38 39 40 39 38 35 32 30 30 31 32 33 34 35 35 35 35 35 34 33 31 29 27 26 26 26 25 25 24 24 24 24
53 53 52 51 50 49 48 47 47 47 47 47 46 46 46 45 45 45 45 45 44 44 44 45 45 45 46 45 45 44 43 43 43 43 43 43 43 43 42 41 41 40 38 37 36 36 36 36 36 36 36 36 37 38 39 39 39 38 37 34 32 31 32 33 35 35 36 36 36 36 36 36 35 33 30 28 27 26 26 26 25 25 24 24 24 24
53 52 52 51 50 49 48 47 47 47 47 47 46 46 46 46 46 46 47 46 44 44 44 44 45 45 45 45 45 44 43 43 43 43 42 43 43 43 42 41 41 40 38 37 37 37 37 37 37 37 37 37 38 38 39 39 38 37 35 34 33 33 34 36 36 37 37 37 38 37 37 36 34 32 29 27 26 26 25 26 25 25 24 24 24 24
52 52 51 51 50 49 48 48 47 47 47 47 46 46 46 46 47 47 47 46 44 44 44 44 44 44 45 45 44 44 43 43 42 42 42 42 43 43 42 41 41 40 39 38 37 37 37 38 38 38 38 38 38 38 38 38 37 36 35 34 34 35 36 37 38 38 38 38 38 38 37 35 33 30 28 26 26 25 25 25 25 24 24 24 24 24
52 51 50 50 50 49 49 48 48 48 47 47 46 46 46 47 47 47 47 46 44 44 44 43 43 43 44 44 44 43 43 43 42 42 42 42 43 43 42 42 41 40 39 38 38 38 38 38 38 38 39 39 38 38 38 37 36 35 35 35 35 36 37 38 38 39 39 39 38 37 35 33 30 28 26 25 25 25 25 25 24 24 24 24 24 24
52 51 49 49 49 49 49 49 49 48 47 47 46 46 46 47 47 47 47 46 45 44 43 43 42 42 43 43 43 43 42 42 41 41 41 42 42 42 42 41 41 40 39 39 38 39 39 39 39 39 39 39 38 38 37 36 36 35 35 36 36 37 38 38 39 39 39 38 37 35 32 30 27 26 25 25 25 25 25 24 24 24 25 24 24 24
52 51 49 49 49 49 50 49 49 49 48 47 47 46 47 47 48 48 47 46 45 43 42 42 42 41 41 41 41 41 41 40 40 39 40 41 42 42 42 41 41 40 39 39 39 39 39 39 39 39 39 39 38 37 36 36 36 36 36 36 37 37 38 38 38 38 38 37 35 32 29 27 26 25 25 25 25 26 25 24 24 25 25 25 24 24
50 50 50 49 48 49 49 50 50 49 49 48 47 47 47 48 48 48 47 46 44 43 42 41 41 41 40 39 39 40 40 39 38 39 39 41 42 42 41 41 41 40 39 39 39 39 39 39 39 39 39 38 38 37 36 36 36 36 36 37 37 37 38 38 38 37 36 34 31 29 26 25 25 25 25 25 26 25 25 24 25 25 25 25 25 24
47 48 48 47 47 48 49 49 50 50 49 48 48 48 48 48 49 48 48 46 44 42 41 40 40 40 39 38 38 38 38 38 38 38 39 41 42 42 41 41 41 40 39 39 39 40 40 39 39 39 38 38 37 37 36 36 36 36 36 36 36 37 37 37 36 35 33 31 28 26 25 25 25 25 25 26 26 25 24 25 26 26 26 26 26 25
46 45 45 44 45 46 47 48 49 50 49 49 49 49 49 49 49 48 47 45 43 41 40 39 39 39 39 39 38 37 36 36 36 37 39 40 41 42 41 41 41 40 40 40 40 40 40 39 39 39 38 38 38 37 37 36 36 35 35 35 35 35 35 34 33 32 30 28 27 26 25 25 26 26 26 27 26 25 25 26 27 27 27 27 27 26
46 44 43 41 41 42 45 46 48 49 49 50 50 50 49 49 49 48 47 45 43 41 39 38 37 38 39 40 39 38 37 35 35 36 38 40 41 41 41 41 41 40 40 40 40 40 40 39 39 39 38 38 38 37 37 36 36 35 34 34 34 33 33 32 30 29 28 27 27 26 26 27 27 27 28 27 26 25 26 27 28 28 28 28 27 26
47 45 43 40 39 40 42 44 45 47 48 49 50 50 49 49 48 47 46 44 42 41 39 38 37 38 39 40 41 40 39 36 35 35 37 39 40 41 41 41 41 41 40 40 40 40 40 40 39 39 38 38 38 37 36 36 35 34 34 33 33 33 32 30 29 28 27 27 28 28 28 28 28 28 28 27 26 26 27 28 29 29 29 29 28 27
47 47 44 41 39 38 40 41 43 44 45 47 48 49 49 48 48 47 46 44 43 41 40 38 38 38 39 40 41 41 41 39 37 36 36 37 39 40 41 42 41 41 41 41 40 40 40 40 39 39 39 38 38 37 36 35 34 34 34 33 33 33 31 30 29 28 28 28 29 29 29 29 29 29 29 28 27 26 27 28 29 29 29 29 28 27
46 47 46 43 40 39 39 40 40 41 42 44 46 47 48 48 48 47 46 45 44 42 41 39 39 39 39 40 41 42 42 41 39 37 36 36 37 39 41 42 42 42 41 41 41 40 40 40 40 39 39 38 37 36 35 34 34 33 33 34 34 33 32 31 30 29 29 30 30 30 30 30 30 30 30 28 27 27 27 27 28 29 29 28 28 28
45 46 46 44 42 40 39 39 39 38 39 40 43 45 47 48 48 47 47 46 44 43 41 40 39 39 39 40 41 42 43 42 41 38 36 35 35 38 40 41 42 42 41 41 41 41 40 40 40 39 38 37 36 35 34 34 33 33 33 34 34 34 33 32 31 31 31 31 31 31 31 31 31 30 30 29 28 28 27 27 27 28 28 28 28 27
43 44 45 44 42 40 39 39 38 37 37 39 41 43 46 47 47 47 47 46 44 43 42 40 39 39 39 40 41 42 43 44 43 40 37 35 34 36 39 41 42 42 42 41 41 41 40 40 40 39 38 37 36 35 34 34 33 33 33 34 34 34 33 33 33 32 32 32 32 32 31 31 31 31 30 30 29 28 27 27 27 27 28 28 28 28
41 42 43 43 41 40 40 39 38 37 37 37 39 41 43 44 45 45 45 45 44 43 42 40 40 40 40 40 40 41 43 44 43 42 39 36 35 36 38 40 42 42 42 41 41 40 40 40 40 39 38 37 36 35 35 34 34 34 34 34 34 34 34 34 34 33 33 33 32 32 31 31 31 31 31 30 30 29 28 27 27 28 28 29 29 29
40 41 42 41 41 41 40 40 39 37 37 37 38 39 40 41 42 42 42 42 42 42 41 41 40 40 40 40 40 41 41 43 43 42 40 38 36 36 37 39 41 42 42 41 41 40 40 40 39 39 38 37 37 36 36 35 35 35 35 34 35 35 35 35 34 33 33 33 32 32 31 30 30 30 31 31 30 29 28 28 28 28 29 29 29 29
39 40 40 40 40 40 40 40 39 38 36 36 37 38 39 39 40 40 40 41 41 41 41 41 41 40 40 40 40 40 41 41 42 42 41 39 37 36 36 38 40 42 42 41 41 40 40 39 39 38 37 37 37 36 36 36 36 36 36 36 36 36 35 35 34 33 32 32 32 31 30 30 30 30 31 31 30 29 28 28 28 29 29 29 29 29
38 38 39 39 39 40 40 39 38 37 36 37 37 38 39 39 39 39 39 40 40 40 41 41 41 40 40 40 39 39 40 41 41 41 40 40 38 37 37 38 40 42 42 42 41 40 39 38 38 37 36 36 36 36 36 37 37 37 37 37 37 36 35 34 33 32 32 31 31 30 29 29 30 30 30 30 29 29 28 28 29 29 29 29 28 28
38 38 38 38 38 38 39 39 38 37 37 37 38 39 39 39 39 39 40 40 40 40 41 41 41 41 40 40 39 39 39 40 40 40 39 39 39 38 38 39 40 42 43 43 42 40 39 38 36 35 35 35 35 36 36 36 37 37 38 38 37 37 35 34 33 32 32 31 30 29 29 29 30 30 29 29 29 29 29 29 29 29 29 28 28 27
39 39 39 38 37 37 38 38 38 38 38 38 39 39 39 39 39 40 40 40 40 40 41 40 40 40 40 39 38 38 38 39 39 39 39 39 39 39 40 40 42 43 44 44 42 40 39 37 36 35 35 35 35 36 36 36 37 38 38 38 37 36 35 34 33 32 32 31 30 30 30 30 30 30 29 29 29 29 29 29 29 29 28 28 27 27
39 39 39 38 37 37 38 38 39 39 39 39 39 39 39 39 39 39 40 40 40 40 40 40 40 40 39 38 37 37 37 37 38 38 38 39 40 40 41 42 43 44 45 44 42 40 38 37 36 36 36 36 36 36 37 37 38 38 38 38 37 35 34 33 32 32 32 31 31 31 31 30 30 30 29 29 29 29 29 29 28 28 28 27 27 26
39 39 38 38 38 38 38 38 39 39 39 39 38 38 38 38 38 38 38 39 39 39 39 39 39 39 38 38 37 37 37 37 37 38 38 39 40 42 43 44 44 45 45 43 41 39 38 37 36 36 37 37 37 38 38 38 39 39 38 37 36 34 33 33 32 32 32 31 31 31 31 31 31 30 30 29 29 29 29 28 28 28 27 27 26 26
37 37 38 38 38 37 37 37 38 38 38 38 38 37 37 36 36 36 36 37 37 38 38 38 38 38 37 37 36 36 36 37 37 38 39 40 41 42 43 44 44 44 43 42 40 39 38 37 37 37 38 38 38 39 39 39 39 38 37 36 34 33 33 33 32 32 32 32 32 32 32 32 31 31 30 30 29 29 28 28 28 27 27 26 26 26
35 35 35 36 36 35 35 35 36 37 37 37 37 36 35 34 33 33 34 35 36 36 37 37 37 36 36 36 36 36 37 37 37 38 40 41 42 43 43 44 44 43 42 41 39 38 38 38 38 38 39 39 39 39 39 39 38 37 35 34 33 33 33 32 32 32 32 32 32 32 32 32 32 31 31 30 30 29 28 28 27 27 27 26 26 25
Wind_Direction
268 267 267 266 266 266 264 263 263 263 265 266 267 267 268 267 266 265 266 269 271 271 270 269 268 268 268 269 270 270 269 268 267 267 267 269 270 271 270 268 265 262 260 258 256 255 253 252 251 251 251 251 251 252 252 253 253 253 253 252 253 255 258 258 256 257 263 274 280 279 273 266 261 260 261 263 265 265 264 261 258 256 256 258 261 266
268 267 267 266 266 266 265 263 263 263 264 265 266 266 266 267 267 265 264 265 266 265 265 264 265 266 268 270 272 272 270 269 268 268 269 270 272 272 270 267 263 259 256 254 252 251 250 250 250 251 251 252 252 253 253 254 254 254 253 252 252 254 257 257 255 254 257 265 271 270 266 262 260 261 262 263 262 261 259 257 256 256 258 260 263 267
268 267 267 267 267 266 265 264 263 262 262 263 263 263 264 264 265 265 264 263 262 262 263 263 265 266 269 271 273 272 271 270 269 269 269 271 272 271 269 264 259 254 251 250 249 248 247 248 249 251 252 253 254 255 256 257 257 256 254 251 250 251 253 253 252 251 252 258 262 262 259 257 257 260 261 261 259 257 257 257 258 259 261 263 265 268
268 267 266 266 266 265 265 264 263 262 261 261 261 261 262 262 263 263 262 262 262 263 264 265 266 267 269 270 271 271 270 270 269 269 269 270 270 269 266 261 255 249 247 247 247 247 247 248 250 252 253 255 256 257 258 259 259 258 254 249 246 247 249 250 250 249 250 255 258 258 255 253 255 258 261 261 260 259 260 262 264 264 264 265 267 269
268 267 266 265 264 263 263 262 261 260 259 258 259 260 261 261 262 262 261 261 261 263 266 267 267 267 268 269 269 269 269 269 269 269 268 268 268 266 262 257 251 247 245 245 247 248 248 249 251 253 254 256 257 258 259 259 259 257 253 248 245 246 249 250 250 250 252 256 258 258 256 256 257 261 263 264 263 263 265 267 268 267 266 266 268 269
269 268 267 265 263 262 261 260 260 259 258 257 258 259 260 261 262 262 261 261 261 262 265 266 266 266 267 268 268 268 268 268 268 268 267 266 265 262 259 254 249 246 245 246 247 249 250 251 252 253 255 256 257 257 258 258 257 255 252 248 247 249 250 251 252 253 256 258 259 259 259 260 263 265 266 266 265 265 266 267 267 267 267 267 268 269
269 268 267 266 264 262 261 260 259 258 258 258 258 259 261 262 262 262 262 261 260 260 261 262 263 264 266 268 268 268 267 267 267 266 265 264 262 259 256 252 249 247 247 247 248 250 251 252 253 254 255 255 256 256 257 256 254 251 249 249 250 252 253 253 254 255 257 258 259 259 259 261 264 267 267 265 264 264 265 266 266 267 267 267 267 267
268 268 267 266 265 264 262 261 260 259 259 259 259 260 261 262 262 262 261 260 259 257 257 258 259 262 266 268 268 266 265 265 264 264 263 261 259 257 254 251 249 248 248 249 250 251 252 253 254 254 255 255 256 256 255 253 251 249 248 250 252 253 253 254 255 255 256 256 255 255 256 259 263 265 265 264 263 263 264 265 266 267 267 266 266 266
268 267 267 266 266 265 264 262 261 261 260 260 261 261 261 262 262 262 261 260 258 256 255 255 257 261 264 266 266 265 263 262 262 261 260 259 257 255 253 251 249 249 249 250 251 252 253 254 255 255 255 256 256 256 255 252 249 247 247 249 251 252 252 253 254 255 254 252 251 250 252 256 260 263 263 263 263 263 265 266 266 267 266 266 265 266
267 267 267 266 266 265 265 264 263 262 261 261 262 262 262 262 262 262 261 260 258 256 255 255 256 259 262 264 264 263 261 260 259 258 257 256 255 253 252 251 250 250 250 251 252 253 254 254 255 255 255 256 256 256 254 251 247 244 244 246 248 250 251 252 253 253 251 249 247 247 250 254 259 261 262 262 263 264 265 266 266 266 266 265 265 266
267 267 266 266 266 265 265 264 264 263 262 262 262 262 263 263 263 263 262 261 259 258 256 256 256 258 259 260 260 260 259 258 257 256 255 254 253 252 252 251 251 251 251 251 252 253 254 255 255 256 256 256 256 255 254 250 246 242 241 244 246 248 249 251 252 251 249 246 245 246 250 254 257 259 260 262 264 265 266 267 266 265 264 264 264 265
267 267 266 266 266 266 265 265 264 263 263 262 262 262 263 263 264 264 263 262 260 258 257 256 256 257 257 258 258 257 256 256 255 255 254 253 253 252 252 252 252 252 252 252 253 253 254 255 256 256 256 256 256 255 253 250 246 242 240 242 245 247 248 250 251 250 248 246 247 249 252 255 256 258 259 262 266 268 269 268 266 264 262 262 262 265
268 267 267 266 266 266 265 265 265 264 263 263 263 263 263 263 263 263 262 262 260 259 257 256 256 256 256 256 256 255 254 254 254 254 253 253 253 252 252 252 252 253 253 253 253 254 254 255 256 256 257 256 256 255 253 250 246 242 240 242 244 246 248 249 249 248 248 248 250 253 255 256 257 259 262 267 270 272 271 269 266 262 260 260 261 264
269 268 268 267 267 266 266 265 265 265 264 264 264 264 263 263 262 261 261 260 260 259 258 256 255 254 254 254 254 254 253 252 252 252 253 253 253 253 253 253 253 253 253 253 254 254 254 255 256 256 257 256 256 254 252 249 245 242 240 241 243 245 247 247 247 247 248 250 253 255 256 257 259 262 267 271 274 274 273 269 265 261 259 258 261 264
270 269 269 268 267 267 266 266 266 265 265 265 264 264 263 262 261 260 260 259 259 258 257 256 255 254 252 252 252 252 252 251 251 251 252 252 253 253 253 253 253 253 253 254 254 254 254 255 255 256 256 256 254 253 250 248 245 242 240 241 243 244 246 246 245 246 248 252 254 256 257 259 262 266 271 273 274 274 272 269 265 261 258 259 261 265
270 270 269 269 268 267 267 266 266 265 265 264 264 263 262 261 261 260 259 258 258 257 256 255 255 254 252 251 250 250 251 251 250 250 250 252 252 252 252 253 253 253 253 253 253 254 254 254 255 255 255 254 253 251 248 247 244 242 241 241 243 244 245 244 243 244 248 252 255 256 258 261 265 268 271 273 273 272 270 267 263 260 259 259 262 265
270 270 269 269 269 268 267 267 266 266 265 264 263 262 262 261 260 259 258 258 257 256 255 255 254 253 252 251 250 249 250 250 249 249 249 250 251 251 252 252 252 253 253 253 253 253 253 253 254 254 254 252 250 248 246 245 244 243 243 243 244 245 244 243 242 244 248 252 255 257 260 263 266 269 271 271 271 270 268 265 262 260 259 260 262 265
269 269 269 269 268 268 267 267 266 266 265 264 263 262 261 260 259 258 257 257 256 255 255 254 254 253 253 251 249 248 248 248 248 248 248 249 249 250 251 251 252 252 252 252 252 252 252 252 252 253 252 250 248 245 244 244 244 244 245 245 245 245 244 243 242 245 249 252 255 258 261 264 267 268 269 269 268 267 265 263 261 259 259 260 262 263
269 268 268 268 268 267 267 266 266 266 265 265 264 262 261 260 258 257 256 255 255 254 254 253 253 253 252 251 249 247 245 246 247 247 247 247 248 249 249 250 250 250 250 250 250 250 250 250 250 250 250 248 246 245 244 244 245 246 247 247 247 246 245 243 243 245 249 252 256 258 261 264 265 267 267 267 266 264 263 261 259 259 259 260 261 261
268 268 268 267 267 267 266 266 266 266 265 265 264 262 261 259 258 257 256 255 254 253 253 252 252 252 251 250 248 246 244 244 245 246 246 246 247 247 248 248 249 249 248 248 248 248 248 248 248 248 248 247 246 245 245 246 247 249 249 249 249 247 246 245 245 246 249 252 255 257 260 262 263 265 266 266 265 263 261 259 258 258 258 259 259 258
268 267 267 267 267 266 266 266 266 265 265 264 263 262 261 260 258 257 256 254 253 252 252 251 251 250 249 248 246 244 242 241 242 243 244 245 245 246 247 247 247 247 247 247 247 246 246 246 246 247 247 246 245 244 244 246 248 250 251 251 250 248 247 246 246 247 249 252 254 256 258 260 262 264 266 266 265 262 259 258 257 257 257 258 257 254
267 267 267 267 266 266 266 266 265 264 263 262 262 261 260 259 258 257 256 254 253 251 250 249 249 248 247 246 245 243 241 240 240 241 243 243 244 245 245 246 246 246 245 245 245 245 244 244 244 245 245 244 242 241 241 243 246 249 251 251 250 249 247 247 247 248 250 252 254 255 257 259 261 264 266 267 265 261 258 256 255 255 256 255 254 251
266 266 266 266 265 265 265 264 264 263 262 261 260 260 260 259 258 257 255 254 252 250 249 248 247 246 246 245 244 243 242 240 240 240 241 242 242 243 244 245 245 245 244 244 244 243 243 242 243 243 243 241 239 238 239 241 244 247 250 251 251 250 249 249 249 251 252 253 254 255 256 258 261 264 267 267 264 260 257 255 254 254 254 253 251 247
264 264 264 264 263 263 263 262 262 261 260 260 259 259 259 258 257 256 255 253 251 250 248 247 246 246 245 244 244 243 242 241 240 240 240 241 241 242 243 244 244 244 244 243 243 242 242 241 241 241 241 239 237 236 238 240 244 247 250 251 252 251 251 251 252 253 253 254 254 255 256 259 262 265 268 267 263 258 254 253 252 252 252 250 247 243
262 262 262 262 262 261 261 260 260 259 258 258 258 257 257 257 256 255 254 253 251 249 248 246 246 245 244 244 243 243 242 241 240 239 239 240 241 241 242 243 243 243 243 242 242 241 241 240 240 240 239 238 236 236 238 240 244 247 249 251 251 251 251 252 253 253 253 253 253 255 256 259 263 266 267 265 260 255 252 250 250 250 249 247 244 240
261 261 261 260 260 259 259 258 257 257 256 256 256 256 255 255 255 254 253 252 250 249 247 246 245 244 244 243 243 243 242 241 240 239 239 240 240 241 241 242 242 242 242 242 241 240 240 239 239 239 238 238 237 237 238 241 244 246 248 249 249 248 248 249 250 251 251 251 252 254 257 260 263 266 266 262 257 252 249 248 248 248 246 244 240 237
259 259 259 258 258 257 257 256 255 254 254 253 253 253 253 253 253 253 252 251 250 248 247 245 244 243 243 242 242 242 241 240 239 239 238 239 240 240 240 241 241 241 241 241 240 240 239 239 239 238 238 238 238 238 239 241 244 246 247 246 245 244 245 246 248 249 250 251 253 255 258 261 264 265 263 258 252 248 246 246 246 245 243 241 237 234
258 257 257 257 256 256 255 254 253 252 252 251 251 251 251 251 251 251 251 251 249 248 246 245 244 243 242 242 241 241 240 239 239 238 238 238 239 239 240 240 240 240 240 240 239 239 238 238 238 238 238 238 238 239 240 242 244 245 245 244 242 242 242 244 246 248 249 251 253 256 259 261 263 262 258 252 247 244 244 244 244 243 240 237 235 232
257 256 255 255 254 254 253 252 251 250 250 249 249 249 249 249 250 250 251 250 249 248 246 244 243 242 241 241 241 240 239 238 237 237 237 237 238 238 238 239 239 239 239 238 238 238 238 238 238 238 238 238 239 240 241 243 244 244 244 243 241 241 242 244 246 247 249 251 254 256 259 260 260 257 252 246 243 242 242 243 242 239 237 234 231 229
257 255 254 253 252 252 251 251 250 249 248 248 247 248 248 248 249 250 250 249 248 247 246 244 243 242 241 241 240 240 238 237 237 236 236 237 237 238 238 238 238 238 238 238 238 237 237 237 238 239 239 239 240 241 242 243 243 243 243 242 242 242 243 244 246 247 249 252 254 256 257 257 255 251 246 242 240 241 242 241 238 236 233 230 227 224
258 256 253 251 250 250 249 249 248 247 246 246 245 246 246 247 248 249 249 249 248 247 246 244 243 242 241 241 241 240 238 237 236 236 236 237 237 238 237 237 238 238 238 237 238 238 238 238 238 239 240 241 241 242 242 242 242 242 242 242 242 243 244 245 246 248 250 252 253 254 254 252 248 244 240 238 239 240 240 238 234 231 228 225 221 219
259 257 254 251 249 247 247 247 246 246 245 244 243 243 244 245 246 247 248 248 248 247 246 244 243 242 241 241 242 241 239 237 236 236 237 238 238 238 237 237 238 238 237 237 237 238 239 239 239 239 240 241 242 243 243 242 242 241 242 242 243 244 244 245 247 248 250 251 252 251 248 245 241 238 236 237 240 240 238 233 229 226 223 219 215 212
258 257 255 251 248 246 246 245 245 244 243 242 241 241 241 243 244 246 247 247 247 247 246 245 243 242 241 241 242 242 240 238 237 236 237 238 238 238 237 237 237 237 236 236 236 237 238 238 239 239 240 241 242 243 242 242 241 241 242 242 242 243 245 245 247 248 249 249 247 245 241 238 236 235 236 239 240 239 234 228 224 221 217 213 209 206
259 257 255 252 249 246 244 244 243 243 242 240 239 239 239 240 242 244 245 246 246 247 246 245 243 241 239 239 240 241 240 239 237 236 237 238 238 238 237 237 236 236 235 235 235 236 236 237 237 238 239 240 240 241 241 241 241 241 242 242 242 243 244 245 246 246 245 244 241 237 234 233 233 235 238 241 241 236 229 223 219 216 211 207 204 202
261 258 255 252 250 247 244 243 242 242 241 239 238 237 238 239 241 242 244 245 245 246 246 245 243 240 237 236 237 239 240 239 238 237 237 238 238 238 238 237 236 235 235 235 235 235 236 236 237 237 237 238 238 239 239 239 240 240 241 241 242 242 243 243 243 242 240 237 234 232 231 232 234 237 240 242 238 231 223 219 216 212 208 204 202 200
261 258 255 251 249 248 247 245 243 242 241 239 237 236 237 238 240 241 243 244 244 244 244 244 243 240 237 235 235 236 238 239 238 238 238 237 238 238 238 237 236 235 234 234 234 234 235 236 236 236 237 237 237 237 238 238 238 238 239 239 240 240 241 240 239 237 234 231 230 230 231 233 236 239 241 240 234 226 219 216 213 209 206 203 201 200
260 258 254 250 247 248 249 248 246 244 242 240 238 237 237 238 239 241 242 243 243 243 243 242 241 239 237 235 234 234 236 238 239 239 238 237 237 237 237 237 236 235 234 234 233 233 233 234 235 235 235 236 236 236 236 236 236 235 236 236 237 238 238 237 235 232 229 229 229 231 232 235 238 240 240 236 228 220 215 213 210 207 205 204 203 202
258 257 254 249 246 246 248 250 249 246 244 242 239 238 237 237 239 240 241 242 241 241 241 240 240 238 237 235 233 233 234 237 240 241 240 238 237 236 236 236 236 235 234 233 233 232 232 233 233 234 234 235 236 236 235 235 233 232 232 233 234 235 234 233 230 228 227 228 230 232 234 236 238 239 237 231 222 215 212 210 208 206 205 205 205 205
256 255 253 249 246 245 247 249 250 248 246 244 241 239 237 237 238 239 240 240 240 239 239 238 238 237 236 234 233 232 233 235 239 242 243 240 237 236 235 235 235 234 234 233 232 231 231 232 232 233 234 234 234 235 234 234 232 230 230 230 231 231 231 229 228 227 227 230 232 234 235 237 238 237 233 225 216 211 210 208 206 206 206 207 208 208
253 253 252 249 246 244 245 248 249 249 247 245 242 240 237 236 237 237 238 239 238 238 237 236 236 236 235 234 233 232 232 234 238 242 244 242 239 236 235 235 235 234 233 232 231 231 230 230 231 232 232 233 233 233 232 232 231 229 228 228 228 228 228 227 226 227 228 231 234 236 236 237 236 233 227 218 211 207 207 206 205 205 207 209 211 211
250 251 251 249 246 243 243 246 248 248 246 244 242 239 237 235 235 236 237 237 237 236 235 235 234 234 234 233 233 232 231 233 237 241 245 245 242 239 237 235 234 233 232 231 230 230 230 230 230 230 230 231 230 230 230 229 228 228 227 227 226 226 227 227 227 227 229 232 234 235 236 235 232 228 220 211 206 204 205 204 204 205 207 210 212 213
248 249 249 247 244 242 242 244 245 246 244 242 240 238 236 234 234 234 235 235 235 235 234 234 233 233 233 233 232 232 231 233 236 240 244 246 245 243 239 236 234 233 231 230 229 229 230 230 230 230 230 229 228 227 226 226 225 225 225 224 224 225 226 226 226 227 230 232 234 234 233 231 226 220 212 206 203 203 204 203 204 205 208 211 213 213
246 247 247 246 243 241 240 241 242 242 241 239 237 235 233 232 232 233 233 234 234 233 233 232 232 232 232 232 232 232 231 232 234 238 242 246 247 246 242 238 236 234 232 230 229 228 229 229 229 229 229 229 228 226 224 223 222 221 221 221 221 223 225 226 226 227 230 231 231 231 229 224 218 212 205 202 202 203 204 204 205 207 209 212 213 212
245 246 246 244 241 238 237 237 238 238 236 234 232 230 230 230 230 231 232 232 232 232 232 232 232 232 232 231 231 231 231 231 233 235 240 244 246 246 243 240 237 235 233 231 229 228 228 228 228 228 229 229 228 226 224 222 220 219 218 218 219 221 224 225 227 228 229 228 227 225 221 215 210 205 201 201 202 204 205 205 206 208 210 211 211 210
245 246 245 242 239 236 234 234 234 233 231 229 227 226 227 227 229 230 231 232 231 231 231 230 231 231 231 230 229 229 230 231 233 235 237 241 244 245 244 241 238 235 233 230 228 227 226 226 227 227 228 228 227 226 224 221 219 218 217 217 218 219 222 224 225 225 225 223 220 216 211 207 203 201 201 202 203 204 205 205 206 207 208 208 207 206
245 246 244 241 238 235 233 231 231 229 227 225 224 224 225 226 228 229 230 231 231 230 230 229 230 230 230 229 229 228 229 231 233 235 237 239 241 243 243 241 238 235 232 229 227 225 224 224 225 226 226 226 226 225 223 221 219 217 216 216 217 219 220 221 221 220 217 214 210 207 203 201 200 200 202 203 204 204 204 204 205 205 204 204 203 202
246 246 243 241 237 234 232 230 229 227 226 224 224 224 225 226 227 229 230 230 229 229 229 228 229 229 229 229 228 229 230 231 233 235 238 239 240 240 241 240 238 234 230 227 224 222 221 221 221 222 223 224 223 223 222 220 218 217 217 217 217 218 219 218 216 213 210 206 202 200 199 199 200 202 203 204 204 203 202 202 202 201 201 200 200 199
248 246 242 239 237 234 232 230 229 227 226 225 225 225 225 226 228 228 229 229 229 228 228 228 228 228 229 228 229 229 230 231 233 235 237 239 240 240 239 238 236 233 228 224 221 219 218 217 218 219 220 221 221 221 220 219 218 217 217 217 217 217 215 213 210 206 203 200 198 197 197 199 201 202 203 202 201 201 200 199 199 198 198 198 198 199
250 245 240 237 236 235 234 233 231 229 227 226 226 226 226 227 228 229 229 229 228 228 228 228 228 228 228 228 229 229 230 231 232 233 235 237 239 239 238 236 234 230 225 221 218 216 215 215 216 217 217 218 218 219 219 218 218 218 218 217 215 213 209 205 202 200 198 197 197 197 198 198 199 199 199 199 198 197 197 197 197 197 197 198 199 201
249 244 239 237 236 236 236 235 233 231 229 228 228 228 228 228 229 229 229 229 229 229 229 229 228 229 229 229 229 230 230 231 231 232 233 235 237 237 236 234 230 226 221 218 215 213 213 213 214 215 216 216 216 216 216 217 217 217 216 214 210 206 202 199 196 195 195 196 197 198 198 198 196 195 195 194 194 194 195 195 196 197 198 200 202 204
246 242 238 237 237 237 237 236 234 233 231 230 229 229 230 230 230 230 229 229 229 229 230 229 229 230 230 230 230 231 231 231 231 231 232 234 235 235 233 230 226 221 217 215 213 212 212 213 214 215 215 215 215 215 215 214 214 213 211 207 203 198 195 194 193 193 194 196 197 198 197 196 194 193 192 191 191 192 194 195 197 199 200 203 205 207
Height
3032 3032 3033 3033 3033 3033 3033 3034 3034 3034 3033 3034 3034 3034 3034 3034 3033 3033 3033 3033 3033 3034 3035 3036 3036 3036 3036 3036 3036 3036 3036 3036 3036 3036 3036 3036 3036 3036 3036 3036 3036 3036 3037 3037 3037 3038 3039 3039 3040 3040 3041 3041 3042 3042 3043 3043 3044 3044 3045 3045 3045 3045 3046 3046 3046 3046 3047 3047 3047 3047 3047 3047 3047 3048 3048 3048 3049 3049 3049 3049 3050 3050 3050 3050 3050 3051
3029 3029 3029 3030 3030 3030 3030 3031 3031 3031 3030 3031 3031 3031 3031 3031 3031 3031 3031 3031 3032 3032 3033 3033 3033 3034 3034 3034 3034 3034 3034 3034 3034 3033 3033 3034 3034 3034 3034 3034 3034 3034 3034 3035 3035 3036 3036 3037 3037 3038 3039 3039 3040 3040 3041 3041 3042 3042 3042 3042 3043 3043 3044 3044 3044 3044 3045 3045 3046 3046 3046 3046 3046 3046 3046 3047 3047 3047 3047 3048 3048 3048 3048 3049 3049 3049
3026 3026 3026 3026 3026 3027 3027 3027 3028 3028 3028 3027 3028 3028 3028 3029 3029 3029 3029 3029 3030 3030 3031 3031 3031 3031 3031 3032 3032 3032 3032 3032 3031 3031 3031 3031 3031 3032 3032 3032 3032 3032 3032 3032 3033 3033 3034 3035 3035 3036 3036 3037 3037 3038 3038 3039 3039 3040 3040 3041 3041 3041 3042 3042 3042 3042 3043 3044 3044 3044 3044 3044 3044 3045 3045 3045 3045 3046 3046 3046 3046 3046 3047 3047 3047 3047
3022 3023 3023 3024 3024 3024 3024 3025 3025 3025 3025 3025 3025 3025 3025 3026 3026 3027 3027 3027 3027 3028 3028 3028 3028 3028 3029 3029 3029 3029 3029 3029 3029 3029 3029 3029 3030 3030 3030 3030 3030 3030 3030 3031 3031 3031 3032 3032 3033 3033 3034 3035 3035 3036 3036 3036 3037 3037 3038 3038 3039 3040 3040 3040 3040 3040 3041 3041 3042 3042 3042 3042 3042 3043 3043 3043 3044 3044 3044 3044 3044 3045 3045 3045 3045 3045
3018 3019 3020 3021 3021 3021 3021 3021 3022 3022 3022 3022 3022 3022 3022 3023 3024 3024 3025 3025 3025 3025 3025 3025 3025 3025 3026 3026 3026 3026 3026 3026 3026 3026 3026 3027 3027 3027 3028 3028 3028 3028 3028 3029 3029 3029 3030 3030 3031 3031 3032 3032 3033 3033 3034 3034 3035 3035 3036 3036 3037 3037 3037 3037 3037 3038 3039 3039 3040 3040 3040 3040 3040 3041 3041 3041 3041 3042 3042 3042 3043 3043 3043 3043 3043 3043
3014 3015 3016 3016 3017 3017 3018 3018 3019 3019 3019 3019 3019 3019 3019 3020 3021 3021 3022 3022 3022 3022 3022 3022 3022 3022 3023 3023 3023 3023 3023 3023 3023 3024 3024 3025 3025 3025 3026 3026 3026 3026 3026 3026 3027 3027 3028 3028 3028 3029 3030 3030 3031 3031 3031 3032 3032 3033 3034 3034 3035 3035 3035 3035 3036 3036 3037 3037 3038 3038 3038 3038 3038 3039 3039 3040 3040 3040 3041 3041 3041 3041 3041 3041 3041 3042
3010 3010 3011 3012 3013 3014 3015 3015 3015 3015 3015 3015 3016 3016 3016 3017 3017 3018 3019 3019 3020 3020 3020 3020 3020 3020 3020 3020 3021 3021 3021 3021 3021 3021 3022 3022 3023 3023 3023 3024 3024 3024 3024 3025 3025 3025 3026 3026 3026 3027 3027 3028 3028 3029 3029 3030 3030 3031 3031 3032 3032 3032 3033 3033 3034 3035 3036 3036 3036 3036 3036 3036 3037 3037 3037 3038 3038 3038 3038 3039 3039 3039 3039 3040 3040 3040
3005 3006 3006 3007 3008 3009 3010 3011 3011 3011 3012 3011 3012 3012 3012 3013 3014 3015 3016 3016 3016 3017 3017 3017 3017 3017 3017 3017 3018 3018 3018 3018 3018 3019 3019 3020 3020 3021 3021 3021 3021 3022 3022 3022 3022 3023 3023 3023 3024 3024 3025 3025 3026 3026 3027 3027 3028 3029 3029 3030 3030 3031 3031 3031 3032 3033 3033 3034 3034 3035 3035 3035 3035 3036 3036 3036 3036 3036 3036 3037 3037 3037 3037 3038 3038 3038
3001 3001 3001 3002 3003 3004 3005 3006 3007 3008 3008 3008 3008 3008 3009 3009 3010 3011 3012 3013 3013 3014 3014 3014 3014 3014 3014 3015 3015 3015 3015 3015 3016 3016 3017 3017 3018 3018 3019 3019 3019 3020 3020 3020 3020 3020 3021 3021 3021 3022 3022 3023 3024 3024 3025 3025 3026 3027 3027 3028 3028 3028 3029 3030 3030 3031 3031 3032 3032 3033 3033 3033 3034 3034 3034 3034 3034 3034 3035 3035 3035 3035 3036 3036 3036 3036
2997 2997 2997 2997 2998 2999 3000 3001 3002 3003 3004 3004 3004 3004 3005 3006 3006 3007 3008 3009 3010 3011 3011 3011 3011 3011 3011 3012 3012 3012 3012 3012 3013 3013 3014 3015 3015 3016 3016 3016 3016 3017 3017 3017 3018 3018 3018 3019 3019 3020 3020 3021 3021 3022 3022 3023 3024 3024 3025 3026 3026 3026 3027 3028 3028 3028 3029 3030 3030 3031 3031 3031 3032 3032 3032 3032 3032 3032 3033 3033 3033 3033 3034 3034 3034 3034
2992 2992 2993 2992 2993 2994 2995 2996 2996 2998 3000 3000 3000 3000 3001 3001 3002 3003 3004 3005 3006 3007 3007 3007 3008 3008 3008 3008 3008 3009 3009 3009 3010 3010 3011 3011 3012 3013 3013 3013 3014 3014 3015 3015 3015 3015 3016 3016 3016 3017 3018 3019 3019 3020 3020 3021 3021 3022 3023 3023 3024 3024 3025 3026 3026 3026 3026 3027 3028 3029 3029 3030 3030 3030 3030 3030 3031 3031 3031 3031 3031 3031 3032 3032 3032 3032
2987 2988 2988 2988 2988 2989 2989 2990 2991 2993 2994 2995 2996 2996 2997 2998 2999 3000 3000 3001 3002 3003 3003 3003 3004 3004 3005 3005 3005 3005 3006 3006 3006 3007 3008 3009 3009 3010 3010 3011 3011 3012 3012 3012 3012 3013 3013 3014 3014 3015 3016 3016 3017 3017 3018 3018 3019 3020 3020 3021 3021 3022 3023 3023 3023 3024 3025 3025 3026 3027 3027 3027 3028 3028 3028 3028 3028 3029 3029 3029 3029 3030 3030 3030 3031 3031
2983 2983 2983 2983 2983 2984 2984 2985 2986 2987 2989 2990 2991 2992 2993 2994 2995 2996 2996 2996 2997 2998 2999 2999 3000 3000 3001 3001 3001 3001 3002 3002 3003 3004 3005 3006 3006 3007 3007 3008 3008 3009 3009 3010 3010 3011 3011 3011 3012 3012 3013 3014 3014 3015 3015 3016 3016 3017 3018 3018 3019 3020 3020 3021 3021 3022 3022 3023 3024 3024 3025 3025 3026 3026 3026 3026 3026 3027 3027 3027 3027 3028 3028 3028 3029 3029
2978 2978 2979 2978 2979 2979 2980 2980 2981 2982 2983 2985 2986 2988 2989 2990 2991 2991 2991 2992 2993 2994 2995 2995 2995 2996 2997 2997 2997 2997 2998 2999 3000 3001 3001 3002 3003 3004 3004 3005 3006 3006 3006 3007 3007 3008 3008 3009 3009 3010 3011 3011 3012 3012 3013 3014 3014 3015 3016 3016 3017 3017 3018 3019 3019 3020 3021 3021 3021 3022 3022 3023 3023 3023 3024 3024 3024 3025 3025 3025 3026 3026 3026 3026 3027 3027
2973 2974 2974 2974 2974 2974 2975 2976 2976 2977 2979 2981 2982 2983 2984 2985 2986 2986 2987 2988 2988 2989 2990 2990 2991 2992 2993 2993 2994 2994 2994 2995 2996 2997 2998 2999 3000 3001 3001 3002 3002 3003 3004 3004 3005 3005 3006 3006 3006 3007 3008 3009 3009 3010 3011 3011 3011 3012 3013 3014 3015 3015 3016 3016 3017 3018 3018 3019 3019 3020 3020 3020 3021 3021 3021 3022 3022 3022 3023 3023 3024 3024 3024 3025 3025 3025
2969 2969 2969 2969 2969 2970 2971 2971 2972 2973 2974 2976 2977 2978 2979 2980 2981 2982 2983 2984 2984 2985 2986 2986 2986 2987 2988 2990 2990 2991 2991 2991 2992 2993 2995 2995 2996 2997 2998 2998 2999 3000 3001 3001 3002 3002 3003 3003 3004 3005 3006 3006 3007 3007 3008 3008 3009 3010 3011 3011 3012 3013 3014 3014 3015 3016 3016 3017 3017 3017 3018 3018 3018 3019 3019 3020 3020 3021 3021 3021 3021 3022 3022 3022 3023 3023
2964 2964 2964 2964 2965 2965 2966 2967 2967 2968 2970 2971 2972 2973 2975 2976 2976 2977 2978 2979 2980 2981 2981 2982 2982 2983 2984 2986 2987 2988 2988 2988 2988 2989 2991 2992 2992 2993 2994 2995 2996 2997 2998 2998 2999 2999 3000 3001 3001 3002 3003 3004 3004 3005 3005 3006 3006 3007 3008 3009 3010 3011 3011 3012 3013 3013 3014 3014 3015 3015 3015 3016 3016 3016 3017 3017 3018 3018 3019 3019 3019 3020 3020 3021 3021 3021
2959 2959 2960 2960 2960 2961 2962 2962 2963 2964 2965 2966 2967 2969 2970 2971 2972 2973 2973 2974 2975 2976 2976 2977 2978 2979 2980 2982 2983 2985 2985 2985 2984 2985 2987 2988 2989 2990 2991 2991 2992 2993 2995 2995 2996 2996 2997 2998 2999 3000 3000 3001 3001 3002 3003 3003 3004 3005 3006 3006 3007 3008 3009 3010 3011 3011 3011 3012 3012 3012 3013 3013 3014 3014 3015 3016 3016 3016 3016 3017 3017 3017 3018 3019 3019 3020
2954 2955 2955 2955 2956 2956 2957 2957 2958 2959 2961 2961 2963 2964 2965 2966 2967 2968 2969 2970 2971 2972 2972 2973 2974 2975 2976 2978 2979 2981 2982 2981 2981 2981 2983 2984 2985 2986 2987 2988 2989 2990 2991 2992 2993 2993 2994 2995 2996 2997 2997 2998 2999 3000 3000 3001 3001 3002 3003 3004 3005 3006 3007 3007 3008 3009 3009 3010 3010 3010 3011 3011 3011 3012 3013 3013 3014 3014 3014 3015 3015 3016 3016 3016 3017 3017
2949 2950 2950 2951 2951 2952 2952 2953 2954 2955 2956 2957 2958 2959 2960 2961 2962 2963 2964 2965 2966 2967 2968 2969 2970 2971 2973 2974 2975 2976 2978 2977 2977 2977 2979 2980 2981 2982 2984 2985 2986 2986 2988 2989 2990 2991 2991 2992 2993 2994 2995 2996 2996 2997 2997 2998 2999 3000 3001 3002 3003 3003 3004 3005 3006 3006 3007 3007 3007 3008 3008 3009 3010 3010 3011 3011 3011 3011 3012 3012 3013 3013 3014 3015 3015 3016
2945 2945 2945 2946 2947 2947 2947 2948 2950 2951 2952 2953 2953 2954 2954 2956 2957 2958 2959 2961 2962 2963 2964 2965 2966 2966 2968 2969 2970 2971 2973 2973 2973 2973 2975 2976 2977 2979 2980 2981 2982 2983 2984 2986 2987 2987 2988 2989 2990 2991 2992 2993 2993 2994 2995 2996 2996 2997 2998 2999 3000 3001 3002 3002 3003 3004 3004 3005 3005 3006 3006 3006 3007 3008 3008 3009 3009 3009 3010 3010 3011 3011 3012 3012 3013 3014
2939 2940 2941 2942 2942 2942 2943 2944 2946 2947 2947 2948 2948 2949 2950 2951 2952 2953 2955 2956 2957 2958 2959 2960 2961 2962 2963 2964 2965 2966 2967 2969 2969 2969 2971 2972 2974 2975 2976 2978 2979 2980 2981 2982 2983 2985 2985 2986 2987 2988 2989 2990 2991 2991 2992 2993 2994 2995 2996 2997 2998 2999 2999 3000 3001 3001 3002 3002 3003 3003 3004 3004 3005 3006 3006 3006 3007 3007 3007 3008 3009 3009 3010 3011 3011 3012
2934 2935 2936 2937 2938 2938 2939 2940 2941 2942 2942 2943 2943 2944 2945 2946 2948 2949 2950 2951 2952 2953 2954 2955 2956 2957 2958 2959 2960 2962 2963 2965 2965 2966 2967 2968 2969 2971 2973 2974 2975 2976 2978 2979 2981 2981 2982 2983 2984 2985 2986 2987 2988 2989 2989 2990 2991 2992 2993 2994 2995 2996 2997 2997 2998 2999 2999 3000 3001 3001 3001 3002 3002 3003 3004 3004 3004 3005 3005 3006 3006 3007 3008 3008 3009 3010
2929 2930 2931 2932 2933 2933 2934 2935 2936 2937 2938 2938 2939 2940 2941 2942 2943 2944 2945 2946 2947 2948 2949 2950 2951 2952 2954 2955 2956 2958 2959 2961 2962 2962 2963 2964 2966 2967 2969 2971 2972 2973 2974 2976 2977 2978 2979 2981 2981 2982 2983 2984 2985 2986 2986 2987 2988 2989 2990 2991 2992 2993 2994 2995 2996 2996 2997 2997 2998 2998 2999 3000 3000 3001 3001 3002 3002 3003 3003 3004 3004 3005 3006 3006 3007 3008
2924 2925 2926 2927 2928 2929 2930 2931 2931 2932 2933 2934 2935 2936 2936 2937 2938 2939 2940 2941 2942 2944 2945 2946 2947 2948 2949 2951 2952 2954 2955 2957 2958 2959 2960 2961 2962 2964 2966 2967 2969 2970 2971 2973 2974 2976 2976 2977 2978 2979 2980 2981 2982 2983 2984 2985 2986 2986 2987 2989 2990 2991 2991 2992 2993 2994 2994 2995 2996 2996 2996 2997 2998 2998 2999 2999 3000 3001 3001 3002 3002 3003 3004 3005 3005 3006
2919 2920 2920 2921 2923 2924 2925 2926 2927 2928 2928 2929 2930 2931 2932 2933 2934 2935 2936 2936 2938 2939 2941 2941 2942 2943 2945 2947 2948 2950 2951 2953 2954 2955 2956 2958 2959 2961 2962 2964 2965 2966 2967 2969 2971 2972 2973 2974 2975 2976 2977 2978 2979 2980 2981 2982 2983 2984 2985 2986 2987 2988 2989 2990 2991 2991 2992 2992 2993 2993 2994 2995 2995 2996 2996 2997 2998 2998 2999 3000 3000 3001 3002 3003 3003 3004
2915 2915 2916 2916 2917 2918 2920 2921 2922 2923 2924 2925 2926 2927 2928 2929 2930 2930 2930 2931 2933 2935 2936 2937 2938 2939 2941 2943 2944 2946 2947 2949 2950 2951 2953 2954 2956 2957 2959 2961 2962 2963 2964 2966 2968 2969 2970 2971 2972 2973 2974 2975 2976 2977 2978 2979 2980 2981 2982 2983 2984 2985 2986 2987 2988 2989 2989 2990 2991 2991 2991 2992 2993 2994 2994 2995 2996 2996 2997 2997 2998 2999 3000 3001 3002 3003
2910 2910 2911 2911 2912 2913 2914 2916 2917 2918 2919 2920 2921 2922 2924 2925 2925 2925 2925 2926 2929 2931 2931 2932 2934 2936 2937 2938 2940 2942 2943 2945 2946 2948 2950 2951 2952 2953 2955 2957 2958 2959 2961 2963 2964 2966 2966 2967 2969 2970 2971 2972 2973 2974 2975 2976 2977 2978 2979 2981 2981 2983 2984 2985 2986 2986 2987 2987 2988 2988 2989 2990 2991 2991 2992 2992 2993 2994 2995 2995 2996 2997 2998 2999 3000 3001
2905 2906 2906 2906 2907 2908 2909 2911 2912 2913 2914 2915 2916 2917 2919 2920 2920 2920 2921 2923 2925 2926 2927 2928 2930 2932 2933 2935 2936 2938 2939 2941 2942 2944 2946 2947 2948 2949 2951 2953 2954 2955 2957 2959 2961 2962 2963 2964 2965 2966 2967 2969 2970 2971 2972 2973 2974 2975 2976 2978 2979 2980 2981 2982 2983 2983 2984 2985 2985 2986 2987 2987 2988 2989 2990 2990 2991 2992 2992 2993 2994 2995 2996 2997 2998 2999
2900 2901 2901 2902 2903 2903 2904 2906 2907 2908 2910 2911 2912 2913 2914 2915 2915 2916 2917 2919 2921 2922 2922 2924 2926 2928 2929 2931 2932 2934 2935 2937 2939 2941 2942 2943 2944 2946 2948 2950 2951 2951 2953 2955 2957 2958 2959 2961 2962 2963 2964 2965 2966 2968 2969 2970 2971 2972 2974 2975 2976 2977 2978 2979 2980 2981 2981 2982 2983 2984 2984 2985 2986 2986 2987 2988 2989 2990 2991 2991 2992 2993 2994 2995 2996 2997
2894 2896 2896 2897 2898 2899 2900 2901 2902 2903 2905 2906 2908 2909 2910 2910 2911 2912 2913 2914 2916 2917 2919 2921 2922 2924 2926 2927 2928 2929 2931 2934 2936 2938 2939 2940 2941 2942 2944 2946 2947 2948 2950 2952 2953 2954 2956 2957 2959 2960 2961 2962 2963 2965 2966 2967 2968 2970 2971 2972 2973 2974 2975 2976 2977 2978 2979 2980 2980 2981 2982 2982 2983 2984 2985 2986 2987 2988 2989 2990 2991 2991 2992 2993 2995 2996
2888 2890 2891 2892 2893 2894 2895 2895 2896 2898 2900 2902 2903 2905 2906 2906 2907 2908 2909 2910 2912 2914 2916 2917 2919 2920 2922 2923 2924 2926 2928 2931 2934 2935 2936 2937 2937 2938 2941 2942 2943 2945 2947 2948 2950 2951 2952 2954 2955 2957 2958 2959 2961 2962 2963 2964 2966 2967 2968 2969 2971 2971 2972 2973 2975 2975 2976 2977 2978 2979 2979 2980 2981 2982 2983 2984 2985 2986 2986 2988 2989 2990 2991 2992 2993 2995
2882 2884 2885 2887 2888 2889 2890 2891 2891 2893 2895 2897 2898 2900 2901 2902 2903 2904 2905 2906 2908 2910 2912 2914 2915 2917 2918 2920 2921 2923 2925 2928 2931 2932 2933 2933 2933 2934 2937 2938 2940 2941 2943 2945 2946 2947 2949 2950 2952 2954 2955 2956 2958 2959 2960 2962 2963 2964 2966 2966 2968 2969 2970 2971 2972 2973 2974 2974 2975 2976 2977 2978 2979 2980 2981 2982 2983 2984 2985 2986 2987 2988 2989 2991 2992 2993
2876 2877 2879 2881 2883 2884 2885 2886 2887 2888 2890 2892 2894 2895 2897 2898 2899 2900 2901 2903 2905 2907 2908 2910 2912 2913 2915 2917 2918 2920 2922 2924 2927 2928 2929 2929 2929 2931 2933 2935 2936 2938 2940 2941 2942 2944 2945 2947 2949 2951 2952 2953 2955 2956 2957 2959 2960 2961 2962 2964 2965 2966 2967 2968 2969 2970 2971 2972 2973 2974 2975 2976 2977 2978 2979 2980 2981 2982 2983 2984 2985 2986 2988 2989 2990 2992
2871 2872 2873 2876 2877 2879 2880 2881 2882 2884 2885 2887 2889 2891 2892 2894 2895 2896 2898 2900 2901 2903 2905 2907 2908 2910 2911 2913 2915 2916 2919 2921 2923 2925 2925 2925 2926 2927 2929 2931 2932 2934 2936 2937 2939 2940 2942 2944 2945 2947 2949 2950 2951 2953 2954 2956 2957 2958 2960 2961 2962 2963 2964 2965 2966 2967 2968 2969 2971 2971 2973 2974 2975 2976 2977 2978 2979 2980 2981 2982 2984 2985 2986 2988 2989 2990
2865 2867 2868 2870 2872 2874 2876 2877 2878 2880 2881 2882 2885 2886 2888 2890 2891 2893 2894 2896 2898 2900 2902 2903 2905 2906 2908 2909 2911 2912 2915 2917 2919 2920 2921 2921 2922 2924 2925 2926 2928 2931 2932 2934 2935 2937 2939 2940 2942 2944 2945 2946 2948 2949 2951 2953 2954 2956 2957 2958 2959 2960 2961 2962 2964 2965 2966 2967 2968 2969 2971 2971 2973 2974 2975 2976 2977 2978 2979 2981 2982 2983 2985 2986 2987 2989
2860 2861 2863 2865 2867 2870 2871 2872 2874 2876 2877 2879 2881 2883 2885 2886 2888 2889 2891 2893 2895 2896 2898 2900 2901 2903 2904 2905 2907 2909 2911 2913 2915 2916 2916 2917 2919 2920 2921 2923 2925 2927 2928 2930 2931 2933 2935 2937 2938 2940 2942 2943 2944 2946 2947 2949 2951 2953 2954 2955 2956 2957 2959 2960 2961 2962 2964 2965 2966 2967 2968 2969 2971 2972 2973 2974 2975 2976 2977 2979 2980 2982 2983 2985 2986 2987
2855 2856 2858 2861 2863 2866 2867 2868 2870 2871 2874 2875 2877 2879 2881 2883 2885 2886 2887 2889 2891 2893 2895 2896 2898 2899 2901 2902 2903 2905 2906 2908 2910 2911 2912 2913 2915 2916 2917 2919 2921 2923 2925 2926 2928 2930 2931 2933 2935 2936 2938 2939 2941 2943 2945 2946 2948 2950 2951 2953 2954 2955 2956 2957 2959 2960 2961 2963 2964 2965 2966 2967 2968 2970 2971 2971 2973 2974 2976 2977 2979 2980 2982 2983 2985 2986
2851 2851 2853 2856 2859 2861 2863 2864 2866 2868 2870 2872 2874 2876 2878 2880 2881 2883 2884 2886 2887 2889 2891 2892 2894 2896 2897 2898 2900 2901 2902 2904 2906 2907 2909 2910 2911 2913 2914 2916 2917 2919 2921 2923 2925 2926 2928 2929 2931 2932 2934 2936 2938 2940 2941 2943 2945 2947 2949 2951 2952 2953 2954 2955 2956 2958 2959 2961 2961 2963 2964 2965 2966 2967 2968 2970 2971 2973 2974 2976 2977 2979 2980 2982 2983 2985
2846 2847 2849 2851 2854 2856 2859 2860 2862 2864 2867 2869 2871 2872 2874 2876 2878 2879 2880 2882 2883 2885 2886 2888 2890 2892 2893 2894 2896 2897 2899 2900 2902 2903 2905 2906 2908 2909 2911 2912 2914 2916 2918 2920 2921 2922 2924 2926 2928 2930 2931 2933 2935 2936 2939 2941 2942 2944 2946 2947 2949 2950 2951 2953 2954 2956 2957 2958 2959 2961 2962 2963 2964 2965 2966 2968 2970 2971 2973 2974 2976 2977 2979 2981 2982 2984
2843 2843 2845 2847 2850 2853 2855 2857 2859 2861 2863 2865 2866 2868 2870 2871 2873 2875 2876 2878 2879 2881 2883 2885 2886 2888 2890 2891 2892 2894 2895 2896 2898 2900 2901 2903 2904 2906 2907 2909 2910 2912 2914 2916 2917 2919 2921 2923 2925 2926 2928 2930 2932 2934 2936 2938 2939 2941 2943 2944 2945 2947 2949 2951 2952 2953 2955 2956 2957 2958 2959 2961 2962 2963 2964 2966 2968 2970 2971 2972 2974 2976 2977 2979 2981 2982
2839 2839 2840 2843 2846 2849 2851 2853 2855 2857 2859 2860 2862 2863 2865 2867 2869 2871 2872 2874 2875 2877 2878 2880 2882 2884 2886 2887 2889 2890 2891 2893 2895 2896 2897 2899 2901 2902 2904 2905 2907 2909 2911 2912 2914 2916 2918 2920 2921 2923 2925 2926 2929 2931 2933 2935 2937 2938 2940 2941 2943 2945 2947 2948 2949 2951 2952 2953 2955 2956 2957 2958 2960 2961 2962 2964 2966 2968 2969 2971 2972 2974 2976 2977 2979 2981
2834 2835 2836 2839 2841 2844 2847 2849 2851 2853 2854 2856 2858 2860 2861 2864 2866 2867 2868 2870 2871 2873 2875 2876 2878 2880 2881 2883 2885 2886 2888 2890 2891 2893 2894 2896 2897 2899 2901 2902 2904 2906 2907 2909 2911 2913 2915 2917 2918 2920 2922 2924 2926 2927 2929 2931 2934 2935 2937 2939 2941 2942 2943 2945 2946 2948 2950 2951 2952 2953 2955 2956 2958 2959 2961 2963 2964 2966 2968 2969 2971 2973 2974 2976 2978 2979
2830 2832 2833 2835 2837 2840 2842 2845 2847 2848 2850 2852 2854 2856 2858 2860 2862 2863 2865 2866 2867 2869 2871 2872 2874 2876 2878 2879 2881 2882 2884 2886 2888 2890 2891 2893 2894 2896 2898 2899 2901 2903 2905 2906 2908 2910 2912 2913 2915 2917 2919 2921 2923 2925 2926 2928 2930 2932 2933 2935 2937 2938 2940 2942 2944 2946 2948 2949 2950 2951 2953 2954 2956 2957 2959 2961 2963 2965 2966 2968 2970 2971 2973 2975 2976 2978
2826 2828 2829 2830 2832 2835 2838 2840 2842 2844 2847 2849 2851 2853 2855 2856 2858 2859 2861 2862 2864 2865 2867 2868 2870 2872 2873 2875 2877 2879 2881 2882 2885 2886 2888 2890 2891 2893 2895 2896 2898 2900 2902 2903 2905 2906 2908 2910 2912 2914 2916 2918 2920 2921 2923 2925 2927 2929 2931 2932 2934 2936 2938 2940 2942 2943 2945 2946 2948 2949 2951 2952 2954 2956 2958 2960 2962 2964 2965 2967 2969 2970 2972 2974 2975 2976
2823 2825 2826 2826 2828 2831 2833 2836 2838 2841 2843 2845 2847 2849 2851 2852 2854 2856 2857 2858 2860 2861 2863 2864 2866 2867 2869 2871 2873 2875 2877 2879 2881 2882 2885 2886 2888 2890 2891 2893 2895 2897 2899 2900 2902 2904 2906 2908 2910 2912 2914 2916 2917 2919 2921 2922 2924 2926 2928 2930 2931 2934 2936 2937 2939 2941 2943 2944 2946 2947 2949 2951 2953 2955 2957 2959 2961 2962 2964 2966 2967 2969 2971 2972 2974 2975
2819 2821 2822 2823 2825 2827 2830 2832 2835 2837 2839 2841 2843 2845 2847 2849 2850 2851 2853 2854 2856 2857 2859 2861 2862 2863 2865 2867 2869 2871 2873 2875 2877 2879 2881 2883 2885 2886 2888 2890 2892 2894 2895 2897 2898 2901 2903 2905 2907 2909 2911 2913 2915 2916 2918 2920 2922 2924 2925 2927 2929 2931 2933 2935 2936 2939 2941 2942 2944 2946 2948 2950 2952 2954 2956 2957 2959 2961 2963 2964 2966 2967 2969 2971 2972 2974
2816 2817 2819 2820 2822 2824 2826 2829 2831 2833 2835 2837 2839 2841 2843 2845 2846 2848 2849 2851 2852 2854 2855 2857 2858 2860 2861 2863 2865 2867 2869 2871 2873 2876 2877 2879 2881 2883 2885 2886 2888 2890 2891 2893 2895 2897 2899 2901 2904 2906 2908 2910 2912 2914 2916 2918 2920 2921 2923 2925 2927 2929 2931 2933 2935 2937 2938 2940 2942 2944 2946 2948 2950 2952 2955 2956 2958 2960 2961 2963 2965 2966 2968 2970 2971 2972
2812 2814 2815 2817 2820 2821 2824 2826 2828 2830 2832 2834 2836 2837 2839 2841 2843 2844 2845 2847 2848 2850 2851 2852 2854 2856 2857 2860 2861 2864 2866 2868 2870 2872 2874 2876 2877 2879 2881 2883 2885 2886 2888 2890 2892 2894 2896 2898 2901 2902 2905 2907 2909 2911 2914 2916 2917 2919 2921 2923 2925 2927 2929 2931 2933 2935 2937 2939 2941 2943 2945 2947 2949 2951 2953 2955 2956 2958 2960 2962 2963 2965 2967 2968 2970 2971
2809 2811 2813 2815 2817 2819 2821 2822 2825 2826 2828 2830 2832 2834 2836 2838 2839 2841 2842 2843 2845 2846 2847 2849 2850 2852 2854 2856 2858 2860 2862 2864 2866 2869 2871 2872 2874 2876 2877 2879 2881 2884 2886 2888 2889 2891 2893 2896 2898 2900 2901 2904 2906 2908 2911 2912 2915 2916 2919 2921 2923 2925 2927 2929 2931 2933 2936 2938 2940 2942 2944 2946 2947 2949 2951 2953 2955 2957 2959 2961 2962 2964 2966 2967 2968 2970
2806 2808 2810 2812 2814 2816 2818 2820 2821 2823 2825 2827 2829 2831 2833 2835 2836 2837 2839 2840 2841 2842 2844 2845 2847 2849 2851 2853 2855 2857 2859 2861 2863 2865 2867 2869 2871 2872 2874 2876 2879 2881 2883 2885 2887 2888 2891 2893 2895 2897 2899 2901 2903 2905 2907 2910 2912 2914 2916 2919 2921 2923 2926 2928 2930 2932 2934 2936 2939 2941 2943 2945 2946 2948 2950 2952 2954 2956 2957 2959 2961 2963 2964 2966 2967 2968